Skip Page Navigation
NASA JPL Caltech
NASA Logo - Jet Propulsion Laboratory + View the NASA Portal
+ Near-Earth Object (NEO) Program
Search JPL
JPL Home Earth Solar System Stars & Galaxies Technology
JPL Solar System Dynamics
BODIES ORBITS EPHEMERIDES TOOLS PHYSICAL DATA DISCOVERY FAQ SITE MAP
JPL Small-Body Database Browser
Search: [ help ]  
(2004 RF84)
Classification: Apollo [NEO, PHA]          SPK-ID: 3251713
Ephemeris | Orbit Diagram | Orbital Elements | Physical Parameters | Close-Approach Data ]

[ hide orbit diagram ]
Orbit Diagram
Note: Make sure you have Java enabled on your browser to see the applet. This applet is provided as a 3D orbit visualization tool. The applet was implemented using 2-body methods, and hence should not be used for determining accurate long-term trajectories (over several years or decades) or planetary encounter circumstances. For accurate long-term ephemerides, please instead use our Horizons system.
Orbit Viewer

Additional Notes: the orbits shown in the applet are color coded. The planets are white lines, and the asteroid/comet is a blue line. The bright white line indicates the portion of the orbit that is above the ecliptic plane, and the darker portion is below the ecliptic plane. Likewise for the asteroid/comet orbit, the light blue indicates the portion above the ecliptic plane, and the dark blue the portion below the ecliptic plane.

Orbit Viewer applet originally written and kindly provided by Osamu Ajiki (AstroArts), and further modified by Ron Baalke (JPL).


Orbital Elements at Epoch 2456400.5 (2013-Apr-18.0) TDB
Reference: JPL 46 (heliocentric ecliptic J2000)
 Element Value Uncertainty (1-sigma)   Units 
e .6030128453363838 5.6834e-08  
a 2.165464766887302 2.7788e-07 AU
q .8596616963309011 4.5899e-08 AU
i 23.25286271414943 1.0502e-05 deg
node 344.7214987004335 3.8294e-06 deg
peri 122.4487047187745 7.8354e-06 deg
M 211.8333013940523 0.00017893 deg
tp 2456879.541582378201
(2014-Aug-10.04158238)
0.00067072 JED
period 1163.925303585253
3.19
0.00022404
6.134e-07
d
yr
n .3092981988544175 5.9535e-08 deg/d
Q 3.471267837443703 4.4544e-07 AU
  Orbit Determination Parameters
   # obs. used (total)      218  
   # delay obs. used      1  
   # Doppler obs. used      1  
   data-arc span      1128 days (3.09 yr)  
   first obs. used      2004-09-10  
   last obs. used      2007-10-13  
   planetary ephem.      DE405  
   SB-pert. ephem.      SB405-CPV-2  
   condition code      1  
   fit RMS      .56152  
   data source      ORB  
   producer      Otto Matic  
   solution date      2011-Sep-14 19:57:40  

Additional Information
 Earth MOID = .0358025 AU 
 T_jup = 3.349 
[ show covariance matrix ]

Ephemeris | Orbit Diagram | Orbital Elements | Physical Parameters | Close-Approach Data ]

Physical Parameter Table
Parameter Symbol Value Units Sigma Reference Notes
absolute magnitude H 18.232 mag .56894 46 autocmod 2.5a

[ show close-approach data ]
Ephemeris | Orbit Diagram | Orbital Elements | Physical Parameters | Close-Approach Data ]
ABOUT SSD CREDITS/AWARDS PRIVACY/COPYRIGHT GLOSSARY LINKS
FirstGov 2013-Jun-19 22:05 UT
(server date/time)  
NASA Home Page
Site Manager:   Donald K. Yeomans
Webmaster  Alan B. Chamberlin